H1 CPF 2 NER 2021 10 16 9 289 01 glonass127 H2 1106403 9127 37869 2021 10 16 0 0 0 2021 10 19 23 45 0 900 1 1 0 0 0 1 H9 10 0 59503 0.00000 0 -10413982.639 21744519.155 8420132.329 10 0 59503 900.00000 0 -9987998.835 20603893.988 11319008.055 10 0 59503 1800.00000 0 -9585408.062 19098286.786 13998886.261 10 0 59503 2700.00000 0 -9258413.885 17257077.937 16408048.648 10 0 59503 3600.00000 0 -9053443.259 15121125.690 18500034.931 10 0 59503 4500.00000 0 -9009040.297 12741251.219 20234519.069 10 0 59503 5400.00000 0 -9154104.412 10176325.950 21578067.957 10 0 59503 6300.00000 0 -9506545.315 7491039.365 22504769.904 10 0 59503 7200.00000 0 -10072410.164 4753438.243 22996722.481 10 0 59503 8100.00000 0 -10845518.922 2032336.979 23044371.711 10 0 59503 9000.00000 0 -11807623.406 -605296.371 22646696.849 10 0 59503 9900.00000 0 -12929084.350 -3096872.637 21811237.324 10 0 59503 10800.00000 0 -14170039.846 -5386530.316 20553960.860 10 0 59503 11700.00000 0 -15482018.542 -7427205.314 18898974.114 10 0 59503 12600.00000 0 -16809932.623 -9182337.221 16878079.745 10 0 59503 13500.00000 0 -18094369.755 -10627142.071 14530186.390 10 0 59503 14400.00000 0 -19274090.253 -11749398.742 11900580.572 10 0 59503 15300.00000 0 -20288626.513 -12549715.663 9040072.411 10 0 59503 16200.00000 0 -21080876.561 -13041265.737 6004029.560 10 0 59503 17100.00000 0 -21599582.836 -13248999.403 2851316.388 10 0 59503 18000.00000 0 -21801591.046 -13208367.587 -356842.052 10 0 59503 18900.00000 0 -21653792.312 -12963607.328 -3558049.706 10 0 59503 19800.00000 0 -21134664.369 -12565661.750 -6689959.569 10 0 59503 20700.00000 0 -20235344.046 -12069822.183 -9691499.456 10 0 59503 21600.00000 0 -18960182.807 -11533192.745 -12504078.333 10 0 59503 22500.00000 0 -17326759.077 -11012085.882 -15072748.037 10 0 59503 23400.00000 0 -15365344.333 -10559460.863 -17347295.743 10 0 59503 24300.00000 0 -13117843.512 -10222515.750 -19283244.004 10 0 59503 25200.00000 0 -10636252.988 -10040537.043 -20842737.094 10 0 59503 26100.00000 0 -7980700.364 -10043100.103 -21995294.788 10 0 59503 27000.00000 0 -5217148.353 -10248698.384 -22718417.785 10 0 59503 27900.00000 0 -2414859.439 -10663860.824 -22998032.217 10 0 59503 28800.00000 0 356271.638 -11282795.533 -22828764.250 10 0 59503 29700.00000 0 3028405.173 -12087575.105 -22214039.552 10 0 59503 30600.00000 0 5538350.539 -13048855.372 -21166006.147 10 0 59503 31500.00000 0 7829958.149 -14127096.421 -19705282.973 10 0 59503 32400.00000 0 9856209.630 -15274233.104 -17860540.093 10 0 59503 33300.00000 0 11580919.692 -16435723.091 -15667920.012 10 0 59503 34200.00000 0 12979979.972 -17552884.514 -13170312.796 10 0 59503 35100.00000 0 14042095.040 -18565423.155 -10416500.619 10 0 59503 36000.00000 0 14768982.483 -19414041.442 -7460189.828 10 0 59503 36900.00000 0 15175031.762 -20043018.433 -4358950.864 10 0 59503 37800.00000 0 15286439.527 -20402651.776 -1173087.885 10 0 59503 38700.00000 0 15139860.939 -20451458.943 2035538.997 10 0 59503 39600.00000 0 14780636.615 -20158045.804 5204715.219 10 0 59503 40500.00000 0 14260672.187 -19502565.006 8273073.528 10 0 59503 41400.00000 0 13636061.359 -18477704.223 11181272.956 10 0 59503 42300.00000 0 12964553.353 -17089164.220 13873132.802 10 0 59503 43200.00000 0 12302971.308 -15355607.931 16296700.948 10 0 59503 44100.00000 0 11704689.474 -13308083.519 18405237.449 10 0 59503 45000.00000 0 11217273.910 -10988945.887 20158096.217 10 0 59503 45900.00000 0 10880384.079 -8450321.225 21521489.827 10 0 59503 46800.00000 0 10724021.611 -5752177.412 22469124.698 10 0 59503 47700.00000 0 10767198.075 -2960078.747 22982696.076 10 0 59503 48600.00000 0 11017076.421 -142715.882 23052234.716 10 0 59503 49500.00000 0 11468621.525 2630689.398 22676299.340 10 0 59503 50400.00000 0 12104774.713 5292999.746 21862011.392 10 0 59503 51300.00000 0 12897145.908 7781692.584 20624930.912 10 0 59503 52200.00000 0 13807196.107 10041202.770 18988774.812 10 0 59503 53100.00000 0 14787862.776 12024982.141 16984981.316 10 0 59503 54000.00000 0 15785562.404 13697191.648 14652126.898 10 0 59503 54900.00000 0 16742488.521 15033956.117 12035204.655 10 0 59503 55800.00000 0 17599110.589 16024129.015 9184775.832 10 0 59503 56700.00000 0 18296770.079 16669534.478 6156008.814 10 0 59503 57600.00000 0 18780264.959 16984675.245 3007622.485 10 0 59503 58500.00000 0 19000313.335 16995917.340 -199246.614 10 0 59503 59400.00000 0 18915791.095 16740184.521 -3402231.848 10 0 59503 60300.00000 0 18495647.054 16263216.497 -6538955.588 10 0 59503 61200.00000 0 17720412.107 15617463.918 -9548255.234 10 0 59503 62100.00000 0 16583235.692 14859709.176 -12371391.044 10 0 59503 63000.00000 0 15090402.707 14048514.330 -14953210.586 10 0 59503 63900.00000 0 13261306.263 13241605.421 -17243245.113 10 0 59503 64800.00000 0 11127874.963 12493305.570 -19196714.655 10 0 59503 65700.00000 0 8733476.936 11852127.401 -20775420.397 10 0 59503 66600.00000 0 6131345.616 11358628.619 -21948505.367 10 0 59503 67500.00000 0 3382592.817 11043623.179 -22693067.468 10 0 59503 68400.00000 0 553892.504 10926825.021 -22994612.117 10 0 59503 69300.00000 0 -2285067.142 11015982.542 -22847335.334 10 0 59503 70200.00000 0 -5064256.045 11306540.582 -22254231.842 10 0 59503 71100.00000 0 -7715986.451 11781843.830 -21227026.549 10 0 59503 72000.00000 0 -10177496.236 12413872.111 -19785931.529 10 0 59503 72900.00000 0 -12393323.253 13164475.119 -17959234.295 10 0 59503 73800.00000 0 -14317371.882 13987052.746 -15782726.650 10 0 59503 74700.00000 0 -15914586.369 14828608.235 -13298986.657 10 0 59503 75600.00000 0 -17162162.652 15632085.620 -10556529.206 10 0 59503 76500.00000 0 -18050250.285 16338891.217 -7608843.161 10 0 59503 77400.00000 0 -18582117.752 16891491.420 -4513335.315 10 0 59503 78300.00000 0 -18773777.389 17235976.425 -1330202.929 10 0 59503 79200.00000 0 -18653088.835 17324481.456 1878742.256 10 0 59503 80100.00000 0 -18258381.687 17117363.684 5051274.936 10 0 59503 81000.00000 0 -17636657.869 16585043.908 8125958.555 10 0 59503 81900.00000 0 -16841451.310 15709436.532 11043325.940 10 0 59503 82800.00000 0 -15930436.154 14484909.037 13747016.020 10 0 59503 83700.00000 0 -14962884.444 12918731.854 16184845.826 10 0 59503 84600.00000 0 -13997079.677 11031000.709 18309798.668 10 0 59503 85500.00000 0 -13087793.710 8854035.173 20080911.176 10 0 59504 0.00000 0 -12283931.269 6431278.583 21464044.069 10 0 59504 900.00000 0 -11626438.482 3815742.922 22432524.398 10 0 59504 1800.00000 0 -11146562.142 1068065.136 22967646.884 10 0 59504 2700.00000 0 -10864529.459 -1745750.954 23059028.538 10 0 59504 3600.00000 0 -10788703.487 -4556812.925 22704808.638 10 0 59504 4500.00000 0 -10915248.573 -7295939.574 21911691.237 10 0 59504 5400.00000 0 -11228320.139 -9896277.256 20694828.789 10 0 59504 6300.00000 0 -11700771.820 -12295826.957 19077548.040 10 0 59504 7200.00000 0 -12295351.881 -14439779.327 17090921.837 10 0 59504 8100.00000 0 -12966340.727 -16282562.263 14773193.064 10 0 59504 9000.00000 0 -13661562.898 -17789516.636 12169059.512 10 0 59504 9900.00000 0 -14324690.938 -18938130.245 9328831.279 10 0 59504 10800.00000 0 -14897745.760 -19718777.868 6307474.873 10 0 59504 11700.00000 0 -15323689.032 -20134935.212 3163560.815 10 0 59504 12600.00000 0 -15548998.291 -20202856.259 -41865.949 10 0 59504 13500.00000 0 -15526115.269 -19950726.046 -3246471.463 10 0 59504 14400.00000 0 -15215662.305 -19417323.173 -6387850.849 10 0 59504 15300.00000 0 -14588330.814 -18650247.457 -9404754.543 10 0 59504 16200.00000 0 -13626359.135 -17703787.154 -12238297.554 10 0 59504 17100.00000 0 -12324534.170 -16636516.031 -14833126.572 10 0 59504 18000.00000 0 -10690671.490 -15508722.715 -17138520.173 10 0 59504 18900.00000 0 -8745550.846 -14379782.264 -19109398.829 10 0 59504 19800.00000 0 -6522307.482 -13305582.724 -20707223.222 10 0 59504 20700.00000 0 -4065303.228 -12336117.218 -21900761.743 10 0 59504 21600.00000 0 -1428523.806 -11513344.931 -22666711.055 10 0 59504 22500.00000 0 1326430.807 -10869412.663 -22990156.854 10 0 59504 23400.00000 0 4132678.449 -10425312.921 -22864865.429 10 0 59504 24300.00000 0 6920611.146 -10190035.421 -22293400.456 10 0 59504 25200.00000 0 9620568.093 -10160247.432 -21287063.159 10 0 59504 26100.00000 0 12165512.764 -10320515.462 -19865657.758 10 0 59504 27000.00000 0 14493601.766 -10644057.397 -18057087.861 10 0 59504 27900.00000 0 16550538.114 -11093991.415 -15896792.847 10 0 59504 28800.00000 0 18291610.915 -11625026.783 -13427036.698 10 0 59504 29700.00000 0 19683337.380 -12185522.951 -10696064.591 10 0 59504 30600.00000 0 20704640.171 -12719827.901 -7757145.134 10 0 59504 31500.00000 0 21347513.071 -13170795.251 -4667518.403 10 0 59504 32400.00000 0 21617149.874 -13482372.513 -1487271.468 10 0 59504 33300.00000 0 21531534.029 -13602150.463 1721835.735 10 0 59504 34200.00000 0 21120509.273 -13483765.867 4897570.609 10 0 59504 35100.00000 0 20424372.985 -13089056.585 7978430.641 10 0 59504 36000.00000 0 19492053.600 -12389879.047 10904825.610 10 0 59504 36900.00000 0 18378950.192 -11369512.705 13620216.924 10 0 59504 37800.00000 0 17144525.715 -10023593.596 16072193.266 10 0 59504 38700.00000 0 15849754.803 -8360538.787 18213463.311 10 0 59504 39600.00000 0 14554532.352 -6401444.626 20002748.139 10 0 59504 40500.00000 0 13315149.907 -4179463.066 21405558.134 10 0 59504 41400.00000 0 12181943.593 -1738681.463 22394841.417 10 0 59504 42300.00000 0 11197209.826 867448.773 22951493.011 10 0 59504 43200.00000 0 10393473.904 3578071.351 23064716.357 10 0 59504 44100.00000 0 9792182.087 6327193.307 22732231.107 10 0 59504 45000.00000 0 9402870.677 9046170.926 21960323.394 10 0 59504 45900.00000 0 9222846.303 11666313.322 20763737.233 10 0 59504 46800.00000 0 9237391.037 14121498.502 19165408.060 10 0 59504 47700.00000 0 9420484.664 16350695.740 17196041.930 10 0 59504 48600.00000 0 9736015.286 18300291.289 14893546.475 10 0 59504 49500.00000 0 10139429.236 19926121.808 12302322.295 10 0 59504 50400.00000 0 10579752.807 21195130.941 9472426.232 10 0 59504 51300.00000 0 11001902.291 22086579.451 6458620.621 10 0 59504 52200.00000 0 11349186.097 22592757.153 3319325.142 10 0 59504 53100.00000 0 11565893.783 22719165.198 115490.536 10 0 59504 54000.00000 0 11599862.224 22484159.316 -3090584.594 10 0 59504 54900.00000 0 11404909.197 21918067.328 -6236470.795 10 0 59504 55800.00000 0 10943029.439 21061816.659 -9260834.142 10 0 59504 56700.00000 0 10186257.669 19965128.857 -12104646.862 10 0 59504 57600.00000 0 9118116.761 18684356.941 -14712357.046 10 0 59504 58500.00000 0 7734586.739 17280057.244 -17032992.663 10 0 59504 59400.00000 0 6044550.685 15814399.112 -19021176.487 10 0 59504 60300.00000 0 4069696.054 14348523.149 -20638030.357 10 0 59504 61200.00000 0 1843873.532 12939961.054 -21851949.494 10 0 59504 62100.00000 0 -588061.077 11640227.475 -22639230.605 10 0 59504 63000.00000 0 -3171874.098 10492686.739 -22984540.721 10 0 59504 63900.00000 0 -5845982.193 9530785.356 -22881217.207 10 0 59504 64800.00000 0 -8543796.241 8776725.128 -22331393.179 10 0 59504 65700.00000 0 -11196282.121 8240632.466 -21345946.284 10 0 59504 66600.00000 0 -13734630.434 7920257.995 -19944272.601 10 0 59504 67500.00000 0 -16092922.823 7801217.490 -18153891.113 10 0 59504 68400.00000 0 -18210683.008 7857761.944 -16009887.675 10 0 59504 69300.00000 0 -20035205.831 8054041.856 -13554210.752 10 0 59504 70200.00000 0 -21523567.448 8345809.835 -10834834.095 10 0 59504 71100.00000 0 -22644233.776 8682487.148 -7904804.141 10 0 59504 72000.00000 0 -23378201.531 9009504.689 -4821192.175 10 0 59504 72900.00000 0 -23719626.373 9270817.660 -1643972.860 10 0 59504 73800.00000 0 -23675914.463 9411486.461 1565148.006 10 0 59504 74700.00000 0 -23267276.327 9380214.135 4743932.994 10 0 59504 75600.00000 0 -22525764.496 9131733.215 7830816.226 10 0 59504 76500.00000 0 -21493837.630 8628941.749 10766087.123 10 0 59504 77400.00000 0 -20222513.202 7844699.439 13493032.355 10 0 59504 78300.00000 0 -18769187.293 6763209.373 15959015.058 10 0 59504 79200.00000 0 -17195213.155 5380928.366 18116472.027 10 0 59504 80100.00000 0 -15563339.423 3706968.558 19923811.389 10 0 59504 81000.00000 0 -13935113.877 1762973.799 21346195.487 10 0 59504 81900.00000 0 -12368359.399 -417524.347 22356195.851 10 0 59504 82800.00000 0 -10914825.387 -2790245.024 22934309.401 10 0 59504 83700.00000 0 -9618110.352 -5301745.304 23069327.360 10 0 59504 84600.00000 0 -8511940.197 -7891392.504 22758550.682 10 0 59504 85500.00000 0 -7618872.358 -10493642.394 22007848.083 10 0 59505 0.00000 0 -6949478.784 -13040531.495 20831555.342 10 0 59505 900.00000 0 -6502041.078 -15464284.311 19252216.008 10 0 59505 1800.00000 0 -6262771.723 -17699926.391 17300168.655 10 0 59505 2700.00000 0 -6206551.771 -19687801.309 15012984.483 10 0 59505 3600.00000 0 -6298156.391 -21375884.736 12434765.336 10 0 59505 4500.00000 0 -6493917.979 -22721801.090 9615312.915 10 0 59505 5400.00000 0 -6743758.498 -23694458.057 6609183.197 10 0 59505 6300.00000 0 -6993506.614 -24275229.662 3474642.612 10 0 59505 7200.00000 0 -7187402.606 -24458636.645 272545.075 10 0 59505 8100.00000 0 -7270685.145 -24252493.720 -2934848.954 10 0 59505 9000.00000 0 -7192149.761 -23677515.506 -6085088.402 10 0 59505 9900.00000 0 -6906569.140 -22766395.863 -9116758.048 10 0 59505 10800.00000 0 -6376870.509 -21562398.037 -11970690.498 10 0 59505 11700.00000 0 -5575975.173 -20117514.145 -14591138.434 10 0 59505 12600.00000 0 -4488219.375 -18490271.424 -16926882.338 10 0 59505 13500.00000 0 -3110293.324 -16743278.157 -18932250.260 10 0 59505 14400.00000 0 -1451655.917 -14940613.631 -20568027.897 10 0 59505 15300.00000 0 465594.696 -13145173.468 -21802239.635 10 0 59505 16200.00000 0 2607391.091 -11416083.534 -22610784.119 10 0 59505 17100.00000 0 4928880.080 -9806292.637 -22977911.124 10 0 59505 18000.00000 0 7376070.515 -8360446.355 -22896530.015 10 0 59505 18900.00000 0 9887876.177 -7113131.943 -22368343.797 10 0 59505 19800.00000 0 12398467.660 -6087567.993 -21403806.556 10 0 59505 20700.00000 0 14839833.869 -5294793.217 -20021905.822 10 0 59505 21600.00000 0 17144445.095 -4733386.956 -18249775.155 10 0 59505 22500.00000 0 19247905.478 -4389731.082 -16122145.682 10 0 59505 23400.00000 0 21091483.393 -4238799.771 -13680648.718 10 0 59505 24300.00000 0 22624413.898 -4245441.004 -10972984.528 10 0 59505 25200.00000 0 23805877.474 -4366092.900 -8051974.893 10 0 59505 26100.00000 0 24606573.303 -4550859.747 -4974519.413 10 0 59505 27000.00000 0 25009822.952 -4745857.734 -1800477.156 10 0 59505 27900.00000 0 25012160.398 -4895729.471 1408503.641 10 0 59505 28800.00000 0 24623386.068 -4946219.930 4590184.227 10 0 59505 29700.00000 0 23866085.220 -4846704.522 7682938.836 10 0 59505 30600.00000 0 22774633.157 -4552562.689 10626939.874 10 0 59505 31500.00000 0 21393730.938 -4027297.618 13365302.361 10 0 59505 32400.00000 0 19776534.236 -3244313.754 15845166.679 10 0 59505 33300.00000 0 17982454.246 -2188278.443 18018700.187 10 0 59505 34200.00000 0 16074722.402 -856011.578 19844000.152 10 0 59505 35100.00000 0 14117819.629 743133.447 21285882.590 10 0 59505 36000.00000 0 12174875.731 2587413.300 22316543.798 10 0 59505 36900.00000 0 10305145.252 4643357.368 22916083.569 10 0 59505 37800.00000 0 8561662.552 6866923.151 23072881.500 10 0 59505 38700.00000 0 6989171.368 9205098.311 22783820.034 10 0 59505 39600.00000 0 5622413.010 11597885.199 22054350.258 10 0 59505 40500.00000 0 4484842.804 13980588.240 20898398.841 10 0 59505 41400.00000 0 3587827.273 16286312.107 19338116.865 10 0 59505 42300.00000 0 2930355.257 18448569.541 17403473.875 10 0 59505 43200.00000 0 2499275.351 20403892.685 15131702.933 10 0 59505 44100.00000 0 2270050.596 22094340.896 12566605.145 10 0 59505 45000.00000 0 2208000.085 23469801.249 9757724.821 10 0 59505 45900.00000 0 2269976.660 24489985.709 6759409.114 10 0 59505 46800.00000 0 2406411.346 25126040.587 3629768.545 10 0 59505 47700.00000 0 2563639.208 25361699.295 429557.412 10 0 59505 48600.00000 0 2686408.689 25193928.049 -2779004.843 10 0 59505 49500.00000 0 2720467.899 24633035.131 -5933448.384 10 0 59505 50400.00000 0 2615117.279 23702236.915 -8972279.501 10 0 59505 51300.00000 0 2325618.637 22436697.022 -11836193.829 10 0 59505 52200.00000 0 1815356.114 20882077.650 -14469251.094 10 0 59505 53100.00000 0 1057654.785 19092663.325 -16819986.532 10 0 59505 54000.00000 0 37176.952 17129135.950 -18842435.456 10 0 59505 54900.00000 0 -1249165.763 15056095.314 -20497049.182 10 0 59505 55800.00000 0 -2791825.563 12939430.365 -21751482.791 10 0 59505 56700.00000 0 -4568775.264 10843653.044 -22581238.156 10 0 59505 57600.00000 0 -6546203.563 8829307.979 -22970148.831 10 0 59505 58500.00000 0 -8679720.301 6950568.041 -22910696.904 10 0 59505 59400.00000 0 -10916021.257 5253117.362 -22404155.646 10 0 59505 60300.00000 0 -13194942.267 3772410.809 -21460555.545 10 0 59505 61200.00000 0 -15451815.693 2532382.496 -20098475.128 10 0 59505 62100.00000 0 -17620029.550 1544656.250 -18344661.636 10 0 59505 63000.00000 0 -19633681.102 808289.249 -16233490.173 10 0 59505 63900.00000 0 -21430212.924 310057.150 -13806273.271 10 0 59505 64800.00000 0 -22952920.583 25265.757 -11110435.808 10 0 59505 65700.00000 0 -24153226.914 -80948.061 -8198572.795 10 0 59505 66600.00000 0 -24992628.144 -51884.066 -5127409.906 10 0 59505 67500.00000 0 -25444231.474 62809.136 -1956688.225 10 0 59505 68400.00000 0 -25493821.324 209486.914 1252004.041 10 0 59505 69300.00000 0 -25140411.577 333025.395 4436429.391 10 0 59505 70200.00000 0 -24396262.915 379394.951 7534904.839 10 0 59505 71100.00000 0 -23286366.733 298181.399 10487488.497 10 0 59505 72000.00000 0 -21847419.193 44948.948 13237126.499 10 0 59505 72900.00000 0 -20126329.851 -416653.908 15730739.186 10 0 59505 73800.00000 0 -18178327.975 -1113133.076 17920227.090 10 0 59505 74700.00000 0 -16064745.793 -2059804.978 19763379.020 10 0 59505 75600.00000 0 -13850570.368 -3259925.546 21224666.793 10 0 59505 76500.00000 0 -11601864.686 -4704328.087 22275913.242 10 0 59505 77400.00000 0 -9383163.333 -6371585.212 22896822.426 10 0 59505 78300.00000 0 -7254948.670 -8228688.886 23075363.294 10 0 59505 79200.00000 0 -5271309.895 -10232221.781 22808000.359 10 0 59505 80100.00000 0 -3477879.947 -12329973.237 22099767.265 10 0 59505 81000.00000 0 -1910133.978 -14462935.212 20964181.504 10 0 59505 81900.00000 0 -592118.645 -16567598.035 19423000.934 10 0 59505 82800.00000 0 464335.613 -18578453.145 17505825.271 10 0 59505 83700.00000 0 1259886.665 -20430601.144 15249548.227 10 0 59505 84600.00000 0 1807425.348 -22062358.388 12697668.631 10 0 59505 85500.00000 0 2131302.362 -23417754.455 9899471.579 10 0 59506 0.00000 0 2266068.717 -24448816.421 6909093.598 10 0 59506 900.00000 0 2254781.462 -25117544.234 3784486.463 10 0 59506 1800.00000 0 2146944.887 -25397491.716 586302.650 10 0 59506 2700.00000 0 1996173.796 -25274886.690 -2623282.020 10 0 59506 3600.00000 0 1857677.390 -24749239.328 -5781781.676 10 0 59506 4500.00000 0 1785671.063 -23833411.230 -8827626.922 10 0 59506 5400.00000 0 1830827.131 -22553139.876 -11701379.292 10 0 59506 6300.00000 0 2037874.499 -20946036.523 -14346908.439 10 0 59506 7200.00000 0 2443451.482 -19060098.337 -16712507.180 10 0 59506 8100.00000 0 3074305.402 -16951796.691 -18751920.797 10 0 59506 9000.00000 0 3945917.971 -14683821.933 -20425268.698 10 0 59506 9900.00000 0 5061617.102 -12322580.033 -21699838.825 10 0 59506 10800.00000 0 6412214.831 -9935547.146 -22550738.054 10 0 59506 11700.00000 0 7976188.273 -7588594.283 -22961385.076 10 0 59506 12600.00000 0 9720396.962 -5343395.459 -22923835.617 10 0 59506 13500.00000 0 11601306.728 -3255028.822 -22438933.697 10 0 59506 14400.00000 0 13566668.508 -1369871.652 -21516286.296 10 0 59506 15300.00000 0 15557580.776 276122.719 -20174062.630 10 0 59506 16200.00000 0 17510848.046 1658694.808 -18438622.951 10 0 59506 17100.00000 0 19361535.329 2766044.120 -16343985.293 10 0 59506 18000.00000 0 21045610.229 3599059.669 -13931141.974 10 0 59506 18900.00000 0 22502561.045 4171009.081 -11247240.645 10 0 59506 19800.00000 0 23677880.559 4506702.505 -8344647.320 10 0 59506 20700.00000 0 24525311.370 4641169.793 -5279911.142 10 0 59506 21600.00000 0 25008759.176 4617909.845 -2112652.323 10 0 59506 22500.00000 0 25103794.892 4486788.717 1095604.076 10 0 59506 23400.00000 0 24798684.149 4301677.389 4282625.034 10 0 59506 24300.00000 0 24094902.930 4117930.408 7386673.562 10 0 59506 25200.00000 0 23007119.666 3989812.599 10347696.613 10 0 59506 26100.00000 0 21562646.421 3967982.421 13108474.384 10 0 59506 27000.00000 0 19800383.624 4097137.458 15615709.903 10 0 59506 27900.00000 0 17769303.366 4413920.172 17821039.331 10 0 59506 28800.00000 0 15526534.873 4945170.716 19681945.206 10 0 59506 29700.00000 0 13135131.474 5706598.951 21162557.031 10 0 59506 30600.00000 0 10661610.746 6701930.440 22234325.765 10 0 59506 31500.00000 0 8173368.341 7922561.696 22876560.987 10 0 59506 32400.00000 0 5736070.559 9347739.336 23076821.893 10 0 59506 33300.00000 0 3411131.293 10945256.631 22831155.568 10 0 59506 34200.00000 0 1253375.598 12672639.988 22144178.283 10 0 59506 35100.00000 0 -691015.557 14478778.170 21028997.983 10 0 59506 36000.00000 0 -2386195.840 16305928.970 19506978.486 10 0 59506 36900.00000 0 -3807910.353 18092022.394 17607348.435 10 0 59506 37800.00000 0 -4944266.976 19773166.937 15366660.571 10 0 59506 38700.00000 0 -5795990.030 21286256.486 12828109.494 10 0 59506 39600.00000 0 -6376144.971 22571570.410 10040718.868 10 0 59506 40500.00000 0 -6709344.665 23575258.737 7058411.598 10 0 59506 41400.00000 0 -6830469.393 24251608.097 3938979.184 10 0 59506 42300.00000 0 -6782953.271 24564992.231 742969.007 10 0 59506 43200.00000 0 -6616708.551 24491423.334 -2467489.562 10 0 59506 44100.00000 0 -6385775.153 24019636.593 -5629897.481 10 0 59506 45000.00000 0 -6145795.092 23151659.609 -8682612.494 10 0 59506 45900.00000 0 -5951419.716 21902840.049 -11566064.767 10 0 59506 46800.00000 0 -5853761.188 20301327.930 -14223936.463 10 0 59506 47700.00000 0 -5897998.264 18387032.358 -16604280.360 10 0 59506 48600.00000 0 -6121240.275 16210095.313 -18660553.859 10 0 59506 49500.00000 0 -6550742.315 13828945.945 -20352546.378 10 0 59506 50400.00000 0 -7202549.621 11308017.194 -21647180.381 10 0 59506 51300.00000 0 -8080630.615 8715221.075 -22519169.162 10 0 59506 52200.00000 0 -9176536.950 6119289.396 -22951517.658 10 0 59506 53100.00000 0 -10469605.954 3587092.453 -22935856.028 10 0 59506 54000.00000 0 -11927697.466 1181048.867 -22472599.459 10 0 59506 54900.00000 0 -13508433.897 -1043264.419 -21570931.421 10 0 59506 55800.00000 0 -15160890.655 -3039201.773 -20248611.378 10 0 59506 56700.00000 0 -16827664.803 -4770751.301 -18531611.706 10 0 59506 57600.00000 0 -18447233.728 -6213780.022 -16453592.057 10 0 59506 58500.00000 0 -19956503.310 -7356771.568 -14055222.852 10 0 59506 59400.00000 0 -21293437.372 -8201028.052 -11383372.545 10 0 59506 60300.00000 0 -22399657.048 -8760330.741 -8490175.939 10 0 59506 61200.00000 0 -23222900.387 -9060077.018 -5432003.268 10 0 59506 62100.00000 0 -23719238.979 -9135933.343 -2268351.355 10 0 59506 63000.00000 0 -23854959.113 -9032064.036 939320.511 10 0 59506 63900.00000 0 -23608029.584 -8799013.149 4128786.493 10 0 59506 64800.00000 0 -22969096.049 -8491330.791 7238258.386 10 0 59506 65700.00000 0 -21941961.909 -8165045.249 10207574.808 10 0 59506 66600.00000 0 -20543537.263 -7875087.948 12979352.832 10 0 59506 67500.00000 0 -18803259.538 -7672779.515 15500080.915 10 0 59506 68400.00000 0 -16762010.975 -7603481.908 17721133.434 10 0 59506 69300.00000 0 -14470578.636 -7704514.096 19599688.998 10 0 59506 70200.00000 0 -11987720.765 -8003417.424 21099536.827 10 0 59506 71100.00000 0 -9377918.907 -8516642.113 22191757.658 10 0 59506 72000.00000 0 -6708907.559 -9248708.964 22855267.839 10 0 59506 72900.00000 0 -4049081.616 -10191880.948 23077217.649 10 0 59506 73800.00000 0 -1464886.500 -11326358.730 22853237.169 10 0 59506 74700.00000 0 981703.405 -12620992.956 22187525.345 10 0 59506 75600.00000 0 3235516.102 -14034485.277 21092780.274 10 0 59506 76500.00000 0 5250228.585 -15517030.248 19589971.098 10 0 59506 77400.00000 0 6990045.289 -17012332.024 17707954.441 10 0 59506 78300.00000 0 8430939.606 -18459914.221 15482940.802 10 0 59506 79200.00000 0 9561407.054 -19797628.682 12957818.981 10 0 59506 80100.00000 0 10382698.238 -20964259.914 10181349.309 10 0 59506 81000.00000 0 10908521.079 -21902117.155 7207239.165 10 0 59506 81900.00000 0 11164223.634 -22559505.500 4093116.784 10 0 59506 82800.00000 0 11185490.609 -22892971.565 899422.068 10 0 59506 83700.00000 0 11016607.461 -22869227.693 -2311764.857 10 0 59506 84600.00000 0 10708364.648 -22466671.480 -5477934.647 10 0 59506 85500.00000 0 10315690.465 -21676433.907 -8537375.090 99